Location: *
(42.3442°N, 9.2072°E)
Time: 10:05:42
(UTC+00:00)

Cosmos 1300 - Pass Details

Date: 09 April 2020
Orbit: 511 x 515 km, 82.5° (Epoch: 05 June)

Event Time Altitude Azimuth Distance (km) Brightness Sun altitude
Exits shadow 18:42:42 10° 131° (SE) 1,757 4.8 -8.7°
Reaches altitude 10° 18:42:46 10° 130° (SE) 1,735 4.8 -8.7°
Maximum altitude 18:45:20 18° 87° (E) 1,334 4.2 -9.2°
Drops below altitude 10° 18:47:55 10° 45° (NE) 1,747 5.1 -9.6°
Sets 18:50:35 0° 26° (NNE) 2,641 6.3 -10.1°
